Theta_e
319 319 319 319 319 320 320 320 319 319 319 318 318 317 317 317 317 317 317 317 317 318 318 318 317 317 317 316 316 317 317 317 316 316 315 315 314 314 314 314 315 316 317 317 317 317 317 316 316 317 317 317 316 316 316 316 316 317 317 317 317 317 316 316 315 315 314 314 314 314 313 313 313 312 312 313 313 313 313 313 314 314 314 314 313 311
318 318 319 319 319 319 319 319 319 319 319 318 318 317 317 317 317 317 317 317 318 318 318 317 317 317 317 317 317 317 318 318 317 316 316 316 316 315 315 314 314 315 316 317 317 317 317 316 316 316 316 316 315 315 315 315 315 316 316 317 316 316 316 316 315 315 314 314 314 314 313 313 313 312 312 313 313 313 313 313 313 313 314 314 313 312
317 318 318 318 318 318 318 318 319 319 318 318 318 317 317 317 317 317 317 317 318 318 318 317 317 316 316 317 317 318 318 318 317 317 317 316 316 315 315 314 314 314 315 316 317 317 317 316 316 316 316 315 315 315 315 315 315 315 316 316 316 316 316 315 315 314 314 314 314 313 313 313 313 313 313 313 313 313 313 313 313 313 313 313 313 312
317 317 317 317 317 317 317 318 318 318 318 318 318 317 317 317 317 317 317 317 318 317 317 317 316 316 316 316 316 317 317 317 316 316 316 315 315 314 314 313 313 314 314 316 316 316 316 316 316 315 315 315 314 314 314 315 315 315 315 315 315 315 315 314 314 314 313 313 314 314 313 313 313 313 313 314 314 313 313 313 313 313 313 313 312 312
316 316 316 316 316 316 317 317 317 317 317 317 317 317 317 317 317 317 317 317 317 317 317 316 316 316 315 315 316 316 316 315 315 314 314 314 314 313 313 313 312 313 314 315 316 316 316 316 316 315 315 315 314 314 314 314 314 314 315 315 315 314 314 314 313 313 313 313 314 314 314 314 314 314 314 314 313 313 313 313 312 312 312 312 311 311
315 315 315 315 316 316 316 316 316 316 317 317 317 317 317 316 316 316 316 316 317 317 317 316 316 316 315 315 315 315 315 314 314 313 313 313 313 313 312 312 312 312 313 314 315 315 316 316 315 315 315 315 314 314 314 314 314 314 314 314 314 313 313 313 313 313 313 313 314 314 314 314 314 314 313 313 313 312 312 312 311 311 311 310 310 310
315 315 315 315 316 316 316 316 316 316 316 316 316 316 316 316 316 316 316 316 316 316 316 316 316 316 315 315 315 315 314 313 313 313 313 313 313 313 312 311 311 311 312 313 314 315 315 315 315 315 315 315 314 314 314 314 313 313 314 313 313 313 312 312 312 313 313 313 313 313 313 313 313 313 313 313 312 312 311 311 310 310 309 309 309 308
314 314 315 315 315 316 316 315 315 315 315 315 315 315 315 315 316 316 316 316 316 316 316 316 316 315 315 315 314 314 314 313 313 313 313 314 313 313 311 310 310 310 311 312 313 314 315 315 315 315 314 314 314 314 314 313 313 313 313 313 313 312 312 312 312 312 312 312 313 313 313 313 312 312 312 312 311 311 310 309 309 308 308 308 307 307
314 314 314 315 315 315 315 315 315 315 315 315 314 314 315 315 315 315 315 315 315 315 315 315 315 315 314 314 313 313 313 312 312 313 313 314 313 312 311 310 310 310 311 311 312 313 314 314 315 314 314 314 314 314 313 313 313 313 313 313 312 312 312 311 312 312 312 312 312 312 312 312 312 311 311 311 310 309 309 308 308 307 307 307 307 306
313 313 314 314 314 314 315 315 315 315 314 314 314 314 314 314 314 314 314 315 315 315 315 314 314 314 314 313 313 312 312 312 312 312 313 313 313 312 310 310 310 311 311 312 312 313 314 314 314 314 313 313 313 313 313 313 313 313 313 312 312 311 311 311 311 311 311 312 311 311 311 311 311 310 310 309 309 308 307 307 307 306 306 306 306 306
311 312 313 313 313 313 313 313 314 314 313 313 313 313 313 313 313 313 313 314 315 315 315 314 314 314 313 313 312 312 311 310 310 311 312 312 311 310 310 310 311 311 312 312 313 313 313 313 313 313 313 312 312 313 313 312 312 313 313 312 312 311 311 311 311 311 311 311 311 311 310 310 310 309 309 308 308 307 307 306 306 306 306 306 306 306
310 310 311 311 311 311 312 312 312 312 312 312 312 312 312 313 313 313 313 313 314 314 314 314 314 313 313 312 312 311 311 310 310 310 310 311 310 310 309 310 311 312 313 313 313 313 313 313 313 312 312 312 312 312 312 312 312 313 313 312 312 311 311 311 310 310 310 310 310 310 309 309 309 308 308 307 307 306 306 306 306 306 306 306 306 306
308 309 309 309 309 309 309 309 310 310 310 310 311 311 311 312 312 312 312 312 313 313 313 313 313 312 312 312 311 311 310 310 310 310 310 309 309 309 309 310 311 312 312 312 312 312 312 312 312 312 312 312 312 312 312 312 312 312 312 312 312 311 311 310 310 310 310 309 309 309 308 308 308 307 307 307 306 306 306 306 306 306 305 306 306 306
308 308 308 308 308 308 308 308 308 308 309 309 310 310 311 311 311 311 311 311 311 311 311 311 311 311 311 311 310 310 310 310 310 309 309 309 308 308 309 310 311 312 312 312 312 311 312 311 311 311 311 311 311 312 312 312 312 312 312 312 311 311 310 310 310 309 309 309 308 308 308 308 307 307 306 306 306 306 306 305 305 305 305 306 306 305
307 307 307 307 307 307 307 307 307 307 308 308 309 309 309 309 309 309 309 309 309 310 309 309 309 310 310 310 310 309 309 309 309 309 309 309 308 309 310 311 312 312 312 311 311 311 311 311 311 311 311 311 311 311 311 311 311 311 311 311 311 310 310 310 309 309 309 308 308 307 307 307 307 306 306 306 305 305 305 305 305 305 305 305 305 304
307 307 307 307 306 306 306 306 306 307 307 307 308 308 307 307 308 308 308 308 308 307 307 307 307 307 308 309 309 309 308 308 308 308 308 308 308 309 310 311 311 311 311 311 311 311 311 311 311 311 311 311 311 311 311 311 311 311 311 311 310 310 310 309 309 309 308 308 307 307 307 307 306 306 306 306 305 305 305 305 305 305 305 304 304 304
307 307 306 306 306 306 306 305 305 305 306 306 306 306 306 306 306 306 306 305 305 305 305 305 305 305 306 308 309 309 308 308 308 308 308 308 308 309 310 310 311 311 311 311 311 311 311 311 311 311 311 311 311 311 310 310 310 310 310 310 310 310 309 309 309 308 308 307 307 307 307 306 306 306 306 305 305 305 305 305 304 304 304 304 303 303
307 306 306 306 305 305 305 305 305 305 305 305 305 306 306 306 305 305 304 304 303 304 304 304 304 304 304 305 308 310 309 308 307 307 307 308 308 309 309 310 310 311 311 311 311 311 311 311 311 311 311 311 310 310 310 310 310 310 310 310 309 309 309 309 308 308 308 307 307 307 306 306 306 306 306 305 305 305 304 304 304 303 303 303 302 302
307 306 306 306 305 304 304 304 304 304 304 304 304 304 304 304 304 304 303 303 303 303 303 303 303 303 304 304 306 308 308 308 307 307 307 308 308 308 309 309 310 310 310 310 311 311 311 311 311 311 310 310 310 310 310 310 309 309 309 309 309 309 308 308 308 308 308 307 307 307 307 306 306 306 306 305 305 304 304 304 303 303 303 302 301 301
307 306 306 305 305 305 304 304 304 304 304 304 304 304 303 303 303 303 302 302 302 302 302 302 302 303 303 304 305 306 306 306 306 306 307 307 308 308 308 309 309 309 310 310 310 310 310 310 310 310 310 310 310 309 309 309 309 309 309 309 308 308 308 308 308 308 307 307 307 307 306 306 306 305 305 305 304 304 304 303 303 302 302 301 300 298
306 306 306 306 305 305 305 304 304 304 304 304 304 303 303 303 303 302 302 302 301 301 301 301 302 302 303 303 303 304 305 305 305 306 306 307 307 307 308 308 309 309 309 309 310 310 310 310 310 310 309 309 309 309 309 308 308 308 308 308 308 308 308 308 307 307 307 307 306 306 306 306 305 305 305 304 304 304 303 303 302 301 300 299 297 295
305 306 306 306 306 306 305 305 305 305 305 304 304 304 303 303 303 302 302 302 301 301 301 302 302 302 303 303 303 303 303 304 304 305 305 306 307 307 307 308 308 308 309 309 309 309 309 309 309 309 309 309 309 309 308 308 308 308 308 308 308 308 307 307 307 307 307 306 306 306 306 305 305 305 304 304 304 303 303 302 301 299 297 296 294 293
304 305 306 306 306 306 306 305 305 305 305 304 304 304 304 304 303 303 303 303 302 302 302 302 302 303 302 302 302 302 302 303 303 304 305 305 306 306 307 307 307 308 308 308 308 308 309 309 309 308 308 308 308 308 308 307 307 307 307 307 307 307 307 307 307 306 306 306 306 305 305 305 305 304 304 304 303 302 301 300 298 296 294 293 292 290
302 303 304 305 306 306 306 306 305 305 304 304 304 304 304 304 304 303 303 303 302 302 302 302 302 302 302 302 302 302 302 302 302 303 304 305 306 306 306 307 307 307 307 308 308 308 308 308 308 308 308 308 308 307 307 307 307 307 307 307 307 307 307 306 306 306 306 306 305 305 305 305 304 304 304 303 302 301 299 297 295 293 292 291 290 289
301 302 303 304 305 305 306 306 305 305 305 304 304 304 304 304 303 303 303 302 302 302 302 302 302 302 302 302 302 302 302 302 302 303 303 304 305 306 306 306 306 306 307 307 307 307 307 307 307 307 307 307 307 307 306 306 306 306 306 306 306 306 306 306 306 305 305 305 305 305 304 304 304 303 303 302 301 299 297 294 293 291 290 289 289 289
303 303 303 303 303 304 304 305 305 304 304 304 304 304 304 304 303 303 303 303 302 302 302 302 302 302 301 302 302 302 301 301 302 302 303 304 304 305 306 306 306 306 306 307 307 307 307 307 307 307 307 306 306 306 305 305 305 305 306 306 306 306 306 305 305 305 305 304 304 304 304 304 303 303 302 301 299 297 294 292 290 289 289 289 289 289
304 304 303 302 302 302 303 303 304 304 304 304 304 304 304 303 303 303 303 303 302 302 302 302 302 302 302 301 301 301 301 301 302 302 302 303 304 304 305 305 305 306 306 306 306 306 306 306 306 306 306 306 305 305 304 304 304 305 305 305 305 305 305 305 305 304 304 304 304 303 303 303 303 302 301 299 297 294 292 290 289 289 289 289 288 288
304 304 303 302 302 301 302 302 303 303 303 304 304 303 303 304 303 303 303 303 302 302 302 302 302 302 302 301 301 301 301 301 301 302 302 303 303 304 304 305 305 305 305 305 305 305 305 305 305 305 305 305 304 304 304 304 304 304 304 305 305 305 304 304 304 304 303 303 303 303 303 302 302 301 300 297 295 292 290 289 289 288 288 288 288 288
303 304 303 302 301 301 301 301 302 303 303 304 304 304 304 304 303 303 303 303 302 302 302 302 302 302 301 301 301 301 301 301 301 301 302 302 303 303 304 304 304 304 305 305 304 304 304 304 304 304 304 303 303 303 303 303 303 303 304 304 304 304 304 303 303 303 303 303 302 302 302 301 301 299 298 295 293 291 289 288 288 288 288 288 288 288
303 303 303 302 301 301 300 301 301 302 303 304 304 304 304 304 303 303 303 303 302 302 302 302 302 302 301 301 301 301 301 300 300 301 301 302 302 303 303 303 304 304 304 304 303 303 303 303 303 303 302 302 302 302 303 303 303 303 303 303 303 303 303 303 303 302 302 302 302 302 301 300 299 298 296 293 291 290 289 288 288 288 288 288 288 288
302 303 303 302 302 301 300 300 301 302 303 303 304 304 304 304 303 303 303 302 302 302 301 301 301 301 301 301 301 301 300 300 301 301 301 301 302 302 302 303 303 303 304 304 303 302 301 301 301 301 301 301 301 302 302 302 303 303 303 303 303 303 303 302 302 302 302 302 301 301 300 300 298 296 294 292 290 289 288 288 288 288 288 288 288 288
302 302 303 302 302 301 300 300 301 301 302 303 303 303 303 303 303 303 302 302 302 301 301 301 301 301 301 301 301 301 301 301 301 301 301 301 301 301 302 302 302 303 303 303 303 302 302 301 301 300 300 300 301 301 301 302 302 302 302 302 302 302 302 302 302 302 301 301 301 300 300 299 297 295 292 290 289 288 288 288 288 288 288 288 288 288
300 301 302 302 302 302 301 300 300 301 301 302 302 302 303 303 302 302 302 301 301 301 301 301 301 301 301 301 301 301 301 301 301 301 301 301 301 301 301 301 302 302 302 302 303 303 303 302 302 301 300 300 300 301 301 301 302 302 302 302 302 302 302 301 301 301 301 301 301 300 299 298 296 293 291 290 288 288 288 288 288 288 288 288 288 288
298 299 301 302 302 302 301 301 300 301 301 301 301 302 302 302 302 301 301 301 300 300 301 301 301 301 301 301 301 301 301 301 301 301 301 300 300 301 301 301 301 301 302 302 302 302 302 303 303 302 301 300 300 300 301 301 301 301 301 301 301 301 301 301 301 301 301 301 300 300 299 297 295 292 290 289 288 288 288 288 288 288 288 288 288 288
297 298 300 301 302 302 301 301 300 300 301 301 301 301 302 301 301 301 301 300 300 300 300 300 301 301 301 301 301 301 301 301 301 301 300 300 300 301 301 301 301 301 301 301 301 301 301 301 302 302 301 300 300 300 300 300 301 301 301 300 300 300 300 300 300 300 300 300 300 299 298 296 294 291 289 288 288 288 288 288 288 288 288 288 288 288
298 298 299 300 301 301 301 300 300 300 300 301 301 301 301 301 301 301 300 300 300 300 300 300 300 301 301 301 301 302 301 301 301 301 300 300 300 300 300 301 300 301 301 301 301 301 301 301 301 301 301 301 300 299 300 300 300 300 300 300 300 299 300 300 300 300 300 300 300 299 298 296 293 290 288 288 287 287 288 288 288 288 288 288 288 288
298 298 299 299 300 301 301 300 300 300 300 300 301 301 301 301 301 300 300 300 300 300 300 300 300 300 300 301 301 302 302 301 301 301 301 300 301 300 300 300 300 301 301 301 301 300 300 300 300 300 300 300 300 300 300 300 299 299 299 299 299 299 299 299 299 299 299 299 299 299 297 295 292 289 288 287 287 287 287 287 288 288 288 288 288 288
298 298 299 299 300 300 300 300 299 299 299 300 301 301 301 300 300 300 300 300 300 300 300 300 300 300 301 301 301 302 302 301 301 301 301 301 301 301 301 301 301 301 301 301 301 301 300 300 299 299 299 299 300 300 301 300 299 299 299 299 299 298 298 298 299 299 299 299 298 298 296 294 291 289 287 287 287 287 287 287 288 288 288 288 288 288
298 299 299 299 299 300 300 300 299 299 299 300 300 301 300 300 300 300 300 300 300 300 300 300 300 300 301 301 302 302 302 301 301 301 301 301 301 301 301 301 301 301 301 301 301 301 301 300 300 299 299 298 299 299 300 300 300 300 299 299 298 298 298 298 298 298 298 298 298 297 295 293 290 288 287 287 287 287 287 287 288 288 288 288 288 288
298 299 299 299 299 300 300 300 300 299 299 300 300 300 300 300 300 299 299 299 299 299 299 299 300 300 301 301 301 302 301 301 301 301 301 300 300 300 300 301 301 301 301 301 301 301 300 300 300 300 300 300 299 299 299 299 299 300 300 298 297 297 297 297 298 298 298 298 298 297 295 292 289 287 287 287 287 287 287 288 288 288 289 289 289 289
298 298 299 299 299 300 300 300 300 300 299 300 300 300 301 300 300 299 299 298 298 299 299 299 299 300 300 301 301 301 301 301 301 301 300 300 300 299 300 300 300 301 301 301 301 300 300 300 300 300 300 300 300 300 300 299 299 299 299 299 298 298 298 298 298 298 298 298 298 297 294 291 289 287 287 286 287 287 287 288 288 288 289 289 289 289
298 298 298 299 299 299 300 300 300 300 300 300 300 301 301 300 300 299 299 298 298 298 298 299 299 299 300 300 300 300 300 300 300 300 300 299 299 299 299 300 300 300 300 300 300 300 300 299 299 299 299 299 299 299 299 299 299 299 299 299 299 299 298 297 297 298 298 298 298 296 294 290 288 287 287 286 287 287 287 288 288 288 289 289 289 289
298 298 298 299 299 299 299 300 300 300 300 301 301 301 301 300 300 299 299 298 298 298 298 298 298 299 299 300 300 300 300 300 300 299 299 299 299 299 299 299 300 300 300 300 299 299 299 299 298 298 299 299 299 299 299 299 299 298 298 298 298 298 297 297 297 297 297 298 297 296 293 290 288 287 286 286 287 287 287 288 288 288 288 289 289 289
297 298 298 298 299 299 299 300 300 300 301 301 301 301 301 300 299 299 298 298 298 298 298 298 298 298 299 299 299 299 299 299 299 299 299 299 298 299 299 299 299 299 299 299 299 299 298 298 297 297 298 298 298 299 299 299 299 298 298 298 298 298 298 299 298 298 298 298 297 296 293 289 287 287 286 286 287 287 287 288 288 288 288 288 288 289
296 297 298 298 298 299 299 299 300 300 300 301 301 301 301 300 299 299 298 298 298 298 298 298 298 298 298 298 299 299 299 299 299 299 298 298 298 298 298 298 299 299 299 299 298 298 298 297 297 297 297 297 297 298 298 299 299 299 298 298 298 298 299 299 299 299 298 299 298 296 292 289 287 286 286 287 287 287 287 288 288 288 288 288 288 288
296 297 297 297 298 299 299 299 300 300 300 300 300 300 300 300 299 299 298 298 298 298 297 297 297 298 298 298 298 298 299 298 298 298 298 298 298 297 297 298 298 298 298 298 298 298 298 297 297 297 297 296 296 297 297 298 298 298 298 298 298 298 298 298 298 298 298 299 298 295 291 288 287 286 286 287 287 287 288 288 288 288 288 288 288 288
296 297 297 297 298 298 299 299 299 300 300 300 300 300 300 300 299 299 298 298 297 297 297 297 297 297 297 298 298 298 298 298 298 298 297 297 297 297 297 297 297 297 297 297 296 296 296 296 296 297 297 296 296 296 297 297 297 298 298 298 298 298 298 297 297 297 298 298 297 295 290 287 286 286 287 287 287 287 288 288 288 288 288 288 288 288
296 297 297 298 298 298 299 299 299 299 299 299 299 300 300 300 299 299 298 298 297 297 297 297 297 297 297 297 298 298 298 298 297 297 297 297 297 297 296 296 296 296 296 295 295 295 295 295 295 295 296 296 297 297 297 297 297 297 297 298 298 298 298 298 297 297 297 297 296 293 289 287 287 287 287 287 287 287 288 288 288 288 288 288 288 288
296 297 297 298 298 298 298 299 299 299 299 299 299 299 299 299 299 299 298 298 297 297 296 296 296 296 297 297 297 297 297 297 297 297 297 297 297 296 296 296 295 295 295 295 294 294 294 294 294 294 294 295 296 297 297 297 297 297 297 297 298 298 298 298 297 297 297 296 294 291 288 287 287 287 287 287 287 287 288 288 288 288 288 288 288 289
296 297 298 298 298 298 298 298 299 299 298 298 299 299 299 299 299 298 298 297 297 296 296 296 296 296 296 296 297 297 297 296 296 296 296 297 297 297 296 296 295 295 295 294 294 293 293 292 292 293 293 294 295 296 297 297 297 296 296 296 297 298 298 298 298 297 297 295 293 289 287 286 287 287 287 287 288 288 288 288 288 288 288 288 288 289
297 297 298 298 298 298 298 298 298 298 298 298 299 299 299 298 298 297 297 296 296 296 296 296 296 296 296 296 296 296 296 296 296 296 296 296 297 297 296 296 296 295 295 294 293 292 292 292 292 292 292 293 293 294 295 296 297 296 296 296 296 297 297 297 297 297 296 294 291 288 286 286 286 287 287 287 288 288 288 288 288 288 289 289 289 289
Wind_Speed
25 24 24 24 24 24 24 24 24 23 23 23 24 25 27 29 31 31 31 30 29 28 28 26 25 24 25 25 25 25 24 22 20 19 20 20 20 20 21 21 22 23 24 26 27 28 29 29 30 31 32 32 30 29 27 26 27 28 28 28 27 26 24 22 20 18 16 15 15 16 18 19 19 18 18 19 21 23 25 26 27 27 26 24 20 17
26 25 25 25 24 24 24 24 24 24 24 25 25 27 28 29 31 31 31 31 30 29 27 25 24 24 25 25 25 25 24 22 20 20 21 21 22 22 22 22 22 23 24 26 28 29 29 30 31 32 33 32 30 27 26 25 26 27 28 28 27 25 22 20 18 16 15 14 15 17 19 20 20 19 19 20 22 24 26 28 29 29 27 25 21 18
28 27 26 25 25 24 24 24 24 24 25 26 27 28 29 30 31 32 32 32 30 28 26 24 24 25 25 25 25 24 23 21 20 20 21 22 23 24 24 24 23 23 24 26 27 29 29 30 31 32 32 30 28 25 24 25 26 27 28 27 25 22 20 18 17 15 15 16 18 20 22 22 21 21 21 23 25 27 28 29 28 27 25 23 21 19
29 29 27 26 25 25 24 23 23 23 24 26 27 28 30 31 32 32 33 32 31 28 26 25 25 25 26 26 25 24 23 21 21 21 23 24 25 26 26 26 25 24 24 25 26 27 28 29 31 31 30 28 26 24 24 24 26 26 26 24 22 19 18 17 16 15 17 19 21 23 23 23 23 23 24 26 27 28 28 27 25 23 21 20 19 18
31 30 28 27 26 26 24 23 23 23 24 25 26 28 30 31 32 33 33 33 32 29 27 26 26 26 27 27 27 26 25 24 24 24 25 26 27 27 27 26 26 25 24 24 25 26 27 28 29 30 29 27 25 24 24 25 25 25 24 21 18 16 15 15 15 17 19 21 23 24 24 24 24 25 26 27 28 27 25 23 20 18 18 17 17 17
33 32 30 29 28 27 25 24 24 24 25 25 26 27 29 30 32 33 33 33 32 30 29 27 27 27 28 28 28 27 27 26 25 25 25 26 27 27 27 27 26 25 25 25 24 24 25 26 27 28 28 27 25 25 25 25 25 24 22 19 17 15 15 16 17 19 21 23 24 25 25 25 25 26 26 26 25 24 21 19 18 17 17 17 17 17
34 33 33 33 32 30 28 27 26 26 27 27 27 27 28 29 31 32 33 33 33 32 30 29 29 29 29 29 29 28 27 25 24 24 24 26 27 27 27 27 26 25 25 25 24 24 24 25 26 26 27 26 26 25 25 26 25 24 22 19 17 16 16 17 19 22 23 25 25 26 26 26 26 25 25 25 24 22 21 20 19 18 18 18 18 18
34 35 35 36 35 34 32 31 29 28 28 29 29 29 29 29 30 31 32 33 33 33 32 32 31 31 30 30 29 29 27 25 23 23 24 26 27 28 28 27 26 24 24 24 24 24 24 25 26 26 26 26 26 26 26 26 26 24 22 20 18 17 17 18 20 22 24 25 26 27 27 26 26 26 25 25 24 23 22 21 20 19 18 19 19 19
34 35 36 37 37 37 36 35 33 31 31 31 31 30 30 30 30 31 32 32 33 33 33 33 33 32 31 31 30 29 28 25 23 23 24 26 28 28 29 27 25 23 23 24 24 24 25 25 26 26 26 26 26 26 26 26 26 24 22 20 18 17 17 19 20 22 24 25 26 26 26 26 25 25 25 24 23 22 21 20 19 19 18 18 19 19
33 35 36 36 37 37 36 36 36 34 33 33 32 32 31 31 31 31 32 33 33 34 34 34 34 33 32 31 30 30 28 26 24 24 26 28 29 30 30 27 24 23 23 24 25 25 25 26 26 26 26 25 25 25 25 26 25 24 22 20 19 18 18 19 20 22 23 24 24 24 24 24 23 23 22 22 21 21 20 19 19 19 19 18 19 19
33 34 35 35 36 36 36 36 36 35 35 34 33 33 33 33 33 33 34 34 34 34 34 34 34 33 32 31 31 30 28 26 25 25 27 30 31 31 29 26 24 24 25 25 26 26 26 26 26 26 25 25 25 25 25 25 25 24 22 21 19 19 19 19 20 21 22 23 23 23 22 21 21 20 20 20 20 19 19 19 19 19 19 19 19 19
35 34 34 35 35 35 35 35 36 35 35 34 34 34 35 35 35 35 35 36 35 35 34 34 33 33 32 31 30 30 29 27 27 27 29 30 31 30 28 26 25 26 26 26 26 26 26 26 26 26 26 26 25 25 25 26 26 25 23 21 20 19 19 19 20 21 22 22 22 22 21 21 21 21 20 20 19 19 19 19 19 19 19 19 20 20
36 36 36 35 35 35 35 35 35 35 35 35 35 36 37 37 37 37 37 37 36 36 36 35 34 33 32 31 30 29 28 28 28 29 30 31 30 29 27 26 26 27 27 27 27 27 27 27 27 27 27 27 26 26 26 26 26 25 23 22 21 20 19 19 19 20 21 22 22 23 23 23 22 22 22 20 19 19 19 20 20 20 21 21 22 21
37 37 37 37 37 36 36 36 36 36 36 37 38 38 38 38 38 37 37 37 37 37 36 36 36 35 33 31 29 28 28 27 28 29 30 31 29 27 27 27 27 28 28 28 28 29 29 29 29 29 29 28 28 27 27 27 26 25 24 22 21 20 20 19 19 19 20 21 22 23 24 24 24 24 23 21 20 20 20 21 22 22 23 23 23 22
37 37 37 37 37 37 37 37 37 37 38 38 38 38 37 37 37 37 37 37 37 37 36 36 36 36 35 33 30 28 27 27 28 29 30 30 28 27 27 27 28 28 28 29 30 30 30 30 30 31 30 30 29 28 28 27 26 25 23 22 22 21 20 20 19 19 19 20 21 22 23 24 24 24 23 22 21 21 22 22 23 24 24 24 24 23
37 37 37 37 37 37 37 37 37 37 37 37 37 36 36 36 36 36 36 36 36 35 35 35 35 36 36 35 32 29 27 26 27 29 29 29 28 27 27 28 28 28 29 30 31 31 31 31 31 31 31 31 30 29 28 27 26 25 23 22 21 21 20 20 20 20 20 20 20 21 22 23 23 23 23 23 22 23 23 24 25 25 25 25 24 23
37 37 37 37 37 37 36 36 36 36 36 36 35 35 34 34 34 34 33 33 33 34 34 34 34 35 36 36 34 31 28 26 27 28 29 29 29 28 28 28 29 29 29 30 31 32 32 32 32 32 32 31 30 29 28 27 26 24 23 22 21 21 20 20 20 20 20 20 21 21 22 23 23 23 24 24 24 24 25 25 26 25 25 24 24 23
38 38 38 38 37 37 36 35 35 35 35 34 34 34 33 32 32 31 31 31 32 32 33 33 33 34 35 35 35 32 28 26 26 28 29 30 30 29 29 29 29 29 30 31 32 32 32 32 32 32 32 32 31 30 29 27 26 24 23 22 21 21 20 20 20 20 20 20 21 21 22 23 23 24 24 24 24 25 25 25 25 24 24 23 23 23
38 39 39 39 38 37 36 35 35 34 34 33 33 32 31 31 30 30 30 30 30 31 32 32 33 33 33 33 33 32 27 25 25 27 29 30 30 30 30 30 30 30 31 32 33 33 33 33 33 33 33 32 31 30 28 27 26 25 24 22 22 21 20 20 20 20 20 20 20 21 21 22 22 23 23 23 23 23 23 23 23 23 23 23 23 23
40 40 39 39 38 37 36 36 36 35 34 32 31 30 29 29 29 29 29 29 30 30 30 31 32 33 32 32 31 30 26 23 24 27 30 31 31 32 32 32 32 32 32 33 34 34 34 34 34 34 33 32 31 30 28 27 26 25 24 23 22 21 20 20 20 20 20 20 20 20 21 21 21 22 22 22 22 21 21 21 21 22 22 22 22 22
41 41 41 40 39 38 38 38 37 36 34 32 30 29 29 29 29 29 29 29 29 29 30 31 32 32 30 29 29 28 25 23 23 26 29 31 32 33 33 33 33 33 34 34 35 35 35 35 34 34 34 33 31 30 29 28 27 26 25 23 22 21 21 21 20 20 20 20 20 20 20 21 21 21 21 21 20 20 20 20 21 21 22 22 22 22
41 43 43 42 41 40 40 39 38 36 34 32 31 30 30 29 29 29 29 29 29 29 30 30 30 29 27 27 27 26 24 22 22 25 28 31 33 34 34 35 34 34 35 35 36 36 35 35 35 34 33 32 31 30 29 28 27 26 25 24 22 21 21 21 21 20 20 20 20 20 20 20 20 20 20 20 20 20 20 20 21 21 21 21 21 21
41 42 43 42 42 42 42 40 39 37 36 34 33 32 31 30 30 29 29 28 28 28 28 28 27 26 25 24 24 24 23 22 22 23 27 31 34 35 35 35 36 36 36 36 37 36 36 35 35 34 33 33 32 31 30 29 28 27 25 24 23 22 21 21 21 20 20 20 20 20 20 20 20 20 20 20 19 19 20 20 20 20 21 20 20 19
40 41 42 42 42 42 42 41 39 38 37 36 35 34 33 31 30 29 28 28 27 27 26 26 25 25 25 24 24 24 23 22 21 23 26 31 33 35 35 36 37 37 38 37 37 37 36 36 35 34 34 33 33 32 31 30 28 27 25 24 23 22 22 21 21 21 20 20 19 19 19 20 20 20 20 19 19 19 19 20 20 20 20 19 19 18
40 40 41 41 41 41 40 40 39 39 38 37 36 35 33 32 31 30 29 28 28 27 27 26 26 27 27 26 26 26 24 23 22 24 27 30 33 35 35 36 37 38 39 38 38 37 37 36 36 35 35 34 34 32 31 30 28 27 25 24 23 23 22 22 21 20 20 19 19 19 19 20 20 20 19 19 19 19 19 19 19 19 19 18 18 18
41 40 40 40 40 40 40 39 39 39 38 37 36 35 34 33 32 32 31 31 30 30 29 29 29 29 28 28 28 28 26 25 24 25 27 30 33 34 35 36 37 39 40 39 39 38 38 38 37 37 36 36 35 33 31 30 28 27 26 25 24 23 22 22 21 20 19 19 19 19 19 20 20 20 19 19 18 18 18 18 18 18 18 18 18 18
42 40 39 39 40 40 39 39 38 38 38 38 36 35 34 33 34 34 34 34 33 32 31 31 32 31 30 30 29 29 28 27 26 26 27 30 32 34 35 36 37 39 40 40 40 40 39 39 39 39 38 37 36 34 32 30 29 27 26 25 24 24 23 22 21 20 19 19 19 19 19 20 20 19 19 18 18 18 18 18 18 18 19 18 18 19
43 42 40 39 40 40 39 38 38 38 38 38 37 36 35 35 35 36 36 35 34 33 33 34 33 33 33 32 31 30 28 28 28 27 28 30 32 34 35 35 36 39 40 41 41 40 40 40 40 40 39 38 36 35 33 31 29 28 27 26 25 24 23 22 20 19 18 18 18 19 19 19 19 19 18 18 17 17 17 18 18 19 19 19 19 19
43 43 42 41 40 39 39 38 37 38 39 39 39 38 38 37 37 37 37 35 34 34 35 35 35 35 34 34 32 31 29 29 29 28 28 30 33 35 35 35 36 38 40 41 41 41 41 41 41 41 40 38 37 35 34 32 30 29 28 27 26 25 23 22 20 19 18 18 18 19 19 19 19 18 18 18 17 17 17 18 19 19 19 19 19 19
42 43 43 42 40 39 38 38 38 39 40 41 40 40 39 39 38 37 36 35 34 35 36 36 37 36 36 34 33 33 33 32 31 30 29 32 35 36 36 37 37 38 39 41 42 41 41 41 41 41 40 39 38 36 35 33 32 31 29 28 27 25 24 22 21 19 18 18 18 19 19 19 18 18 18 18 17 17 18 19 19 19 19 19 19 19
40 42 42 41 40 38 38 37 38 39 41 41 41 41 40 39 39 38 37 36 36 36 36 37 38 38 37 36 35 35 36 35 33 31 30 33 36 38 38 38 39 39 40 40 41 41 40 41 41 41 40 40 39 38 36 35 33 32 30 29 28 26 24 23 21 20 19 18 18 19 19 19 18 18 18 18 17 17 18 19 19 19 19 19 19 19
39 41 42 42 40 39 37 37 38 39 40 42 42 42 41 41 40 39 38 38 37 37 37 37 38 38 39 39 38 38 38 37 34 31 30 33 36 38 39 39 40 40 40 40 40 41 40 41 41 41 40 40 39 39 38 36 35 33 31 30 28 27 25 23 21 20 19 19 19 19 19 19 18 18 18 18 17 18 19 19 19 19 20 20 20 19
38 40 42 43 42 41 38 37 37 38 39 40 41 42 42 41 41 40 39 39 38 38 38 38 38 39 40 40 40 40 40 38 35 31 30 32 36 39 40 40 40 40 40 40 40 41 41 42 42 41 40 40 40 39 38 37 36 34 33 31 29 27 26 24 22 21 20 19 19 19 19 19 19 18 18 18 18 18 19 19 19 20 20 20 20 19
38 40 42 44 45 43 40 38 37 38 38 38 38 38 38 38 37 37 37 38 39 39 39 38 39 39 40 40 41 41 40 39 36 32 29 31 34 38 39 41 41 41 41 41 41 41 42 42 42 42 41 41 40 40 39 38 37 36 34 32 30 28 27 25 23 22 21 20 20 20 20 19 19 19 19 18 18 19 19 19 19 20 20 20 20 19
38 39 41 44 46 45 42 39 38 37 38 37 36 35 33 33 32 32 33 36 38 39 39 39 38 39 39 40 41 41 41 39 36 32 29 30 32 35 38 40 41 41 41 41 42 42 42 42 42 42 42 41 41 41 40 39 38 37 35 33 31 29 28 26 24 23 21 20 20 20 20 19 19 19 19 19 19 19 20 20 20 20 20 20 20 20
38 39 41 43 45 45 43 40 38 37 37 37 35 33 31 30 29 29 31 34 36 38 38 38 38 38 38 39 40 41 40 38 34 31 29 29 30 32 35 38 40 41 41 42 42 42 43 42 42 42 42 42 42 42 41 40 39 37 36 34 32 30 29 27 25 23 22 21 20 20 20 19 19 20 20 19 19 19 20 20 19 20 20 20 20 20
37 38 40 42 44 44 43 41 39 38 37 37 35 32 29 29 28 28 29 32 34 36 38 38 38 38 39 39 39 39 38 36 33 31 29 28 28 29 32 34 36 38 40 41 42 42 43 42 41 41 41 42 43 43 42 41 39 38 37 35 33 32 30 28 27 25 23 22 21 20 20 19 19 20 20 19 20 20 20 20 20 20 20 20 20 20
36 37 39 41 42 43 43 41 40 39 38 37 34 31 29 28 28 28 28 30 32 35 37 38 39 39 40 40 40 39 37 35 33 30 29 27 27 27 29 31 33 35 37 38 40 41 42 43 42 41 41 42 43 43 43 42 40 39 38 36 35 33 31 30 28 26 24 23 21 20 20 20 20 20 20 20 20 21 21 21 21 21 21 21 21 20
35 36 38 40 41 42 42 42 41 39 38 35 32 29 28 27 27 27 27 28 30 32 35 37 38 40 41 41 41 39 37 35 32 30 28 27 26 27 27 29 30 32 33 35 37 39 41 42 43 42 42 42 42 43 43 42 41 40 39 37 35 34 33 31 29 28 26 24 22 21 20 20 20 20 20 21 21 22 22 22 22 22 22 22 22 21
35 35 37 39 41 42 41 41 40 39 37 34 31 28 27 27 27 27 26 27 28 30 33 35 37 39 40 41 40 39 37 34 32 30 29 28 27 28 28 29 29 30 30 32 35 38 40 41 42 43 43 42 42 42 42 43 42 41 40 38 37 36 34 33 31 29 27 25 24 22 21 21 21 21 21 21 22 22 22 22 23 23 23 23 22 22
34 34 37 39 40 40 40 39 39 38 36 34 31 29 28 27 27 26 25 26 27 29 31 34 36 38 40 40 39 38 36 34 33 31 30 29 29 30 30 30 29 29 29 31 33 36 39 40 41 42 42 42 42 41 42 42 42 42 41 40 39 37 35 34 32 30 29 27 25 23 22 22 22 22 21 22 22 22 22 22 22 23 23 23 22 22
35 35 36 38 39 39 39 39 39 38 38 36 34 32 30 29 27 26 25 25 26 28 31 33 36 38 39 39 39 38 37 35 34 32 31 31 31 32 31 31 29 28 28 29 32 34 37 39 40 41 42 41 41 41 41 41 41 41 41 41 39 37 35 34 33 31 30 28 26 24 23 23 22 22 22 22 22 23 22 22 22 23 23 23 22 21
36 36 37 38 39 39 39 39 39 39 39 38 36 34 32 29 27 26 25 25 26 28 30 32 35 37 39 39 39 38 37 36 35 33 32 32 33 33 32 31 29 27 26 27 30 33 35 37 39 41 41 41 40 40 40 40 40 40 40 40 39 38 37 35 34 32 31 29 27 25 24 24 23 23 22 23 23 23 23 23 23 24 24 23 22 21
36 36 36 37 38 38 38 39 40 40 40 40 38 36 33 30 28 26 25 24 25 27 29 31 34 37 38 39 39 39 38 37 35 34 32 33 33 33 32 30 28 25 24 25 28 31 34 36 38 39 39 39 39 39 38 38 38 39 39 39 39 39 38 37 34 33 31 30 28 26 25 24 24 23 23 23 24 24 24 24 25 25 24 24 22 22
36 35 34 36 37 38 39 40 40 40 40 40 39 36 33 30 27 26 25 25 25 26 29 31 34 37 39 40 40 40 39 37 36 34 33 33 33 32 30 28 26 24 23 23 24 28 32 35 37 38 38 38 38 38 37 37 37 37 37 38 38 37 36 35 33 32 31 30 28 27 26 25 25 24 24 24 25 25 25 25 25 25 25 24 23 22
34 34 34 36 38 39 39 39 39 39 40 40 38 36 32 29 27 26 26 25 25 27 29 31 34 38 40 41 41 40 38 37 35 34 33 33 32 31 29 26 24 23 22 22 23 25 28 31 34 36 37 37 37 37 36 35 35 35 36 36 37 36 35 35 33 32 30 29 27 26 26 26 26 25 25 26 26 26 26 26 26 25 24 24 23 22
34 34 36 38 39 40 40 39 38 38 39 39 37 35 32 30 28 27 26 26 26 27 29 32 35 38 40 41 41 39 38 36 35 35 34 33 32 30 28 26 23 22 21 22 23 25 26 28 31 33 35 36 36 36 36 34 33 33 33 34 35 35 35 35 34 32 30 28 26 26 26 27 27 27 27 27 27 27 27 27 26 25 24 24 23 23
34 36 37 39 40 40 40 39 39 38 38 38 37 34 32 30 29 28 27 27 27 29 31 34 37 39 40 40 39 38 36 36 35 35 35 33 32 30 28 26 24 23 22 23 24 25 26 28 29 30 31 33 34 35 34 33 32 31 31 32 32 33 33 33 32 31 30 28 26 26 26 28 28 28 28 28 28 28 27 27 26 25 25 24 23 23
35 37 38 40 40 41 40 39 39 38 38 37 36 34 32 31 30 29 28 28 29 30 33 36 38 39 40 39 38 36 35 35 35 35 34 34 32 30 28 27 25 24 24 24 24 25 26 27 27 28 29 29 30 31 31 30 30 29 28 29 30 30 30 31 31 30 29 28 26 26 26 27 28 28 28 28 28 28 28 27 26 25 25 24 24 23
36 37 39 40 40 40 40 39 38 38 37 36 35 34 33 32 31 31 30 30 30 32 35 37 38 39 39 38 37 36 35 35 35 35 35 34 33 31 30 28 27 26 26 25 26 26 26 26 27 27 27 27 27 28 28 28 27 27 26 27 27 28 28 29 29 30 29 28 27 26 27 27 27 27 27 28 28 28 28 27 26 25 24 24 24 23
36 37 38 40 40 40 39 38 37 36 36 35 34 34 33 33 33 33 32 32 33 34 35 36 38 38 38 37 37 36 35 35 35 35 35 34 34 32 31 30 29 28 28 28 28 28 28 28 27 27 27 27 26 26 26 26 26 26 26 26 26 26 26 27 28 29 29 28 27 26 27 28 28 28 28 28 28 28 27 27 26 25 24 24 23 23
Wind_Direction
285 286 286 286 285 282 278 274 268 263 257 251 244 238 234 233 234 235 237 240 245 252 259 260 258 254 252 253 256 258 260 261 262 263 262 262 261 261 262 264 266 267 266 263 258 253 249 247 247 249 252 253 253 252 252 255 259 263 264 261 257 254 254 256 257 254 248 241 234 231 235 239 242 242 239 238 239 241 243 247 250 251 252 253 256 264
283 284 284 283 282 280 277 274 271 266 260 253 247 242 239 237 236 237 239 243 250 257 261 258 253 249 249 253 257 260 260 259 260 262 262 262 261 261 262 263 264 266 267 266 263 258 252 249 248 250 253 255 255 253 253 256 261 264 265 262 258 255 256 257 256 250 241 232 225 226 233 240 243 244 243 242 242 243 245 247 248 248 249 251 255 262
281 281 280 280 279 278 276 274 272 269 265 259 253 248 244 241 240 241 243 249 255 260 261 257 251 248 249 252 256 259 259 258 258 260 261 262 263 263 263 262 261 262 264 267 267 263 256 251 249 250 253 254 255 254 255 258 262 264 263 261 258 258 259 260 256 247 234 225 222 225 234 241 245 246 245 244 243 243 243 243 243 244 246 250 255 259
277 278 277 277 277 276 275 274 272 269 267 264 260 256 251 247 246 247 250 254 259 262 261 258 253 251 250 251 253 254 255 255 255 257 260 262 264 265 264 262 260 258 260 263 266 266 261 255 251 251 252 253 253 254 256 259 261 261 260 258 258 260 262 261 254 243 232 227 224 226 236 241 244 244 242 239 238 237 236 237 238 242 248 253 255 256
274 274 274 275 275 275 274 272 270 268 266 264 262 260 257 254 253 253 255 258 260 262 261 259 257 256 254 253 253 253 253 253 253 255 258 260 263 264 265 263 259 256 255 258 262 265 264 260 255 252 250 250 250 252 255 257 258 257 256 256 258 261 260 254 243 232 227 227 226 226 233 235 236 235 233 231 230 230 232 235 240 248 254 257 256 256
272 273 273 273 273 273 272 271 269 267 264 262 261 260 259 259 258 258 259 260 260 261 261 260 260 259 259 257 256 255 254 253 253 254 255 258 260 262 263 262 259 254 252 253 257 261 264 263 259 254 249 247 247 250 253 255 254 254 254 257 260 260 254 243 231 223 221 222 224 225 226 226 227 227 227 227 228 231 237 243 250 256 259 259 259 260
271 272 272 272 272 272 271 271 269 267 265 263 261 259 259 259 260 260 261 261 261 260 260 260 260 260 260 259 258 257 255 254 253 252 252 254 256 259 261 262 259 254 250 250 252 256 260 261 259 255 249 246 245 247 251 252 252 252 254 258 261 260 252 241 231 223 220 221 222 223 223 225 226 227 229 231 236 241 248 254 258 260 260 261 262 265
271 270 270 270 270 270 270 270 269 268 267 265 264 262 260 259 259 260 261 261 261 260 260 259 259 259 258 258 258 257 255 253 250 248 247 248 251 255 259 261 259 254 249 248 250 253 255 257 258 255 250 246 245 247 250 250 250 251 254 259 262 260 254 246 239 233 229 227 226 226 228 229 231 233 236 240 245 250 255 258 259 259 260 262 264 267
269 268 267 267 267 266 267 267 268 268 267 266 266 264 263 261 259 259 259 259 259 259 259 258 258 257 257 257 257 257 256 252 247 243 242 244 248 253 257 260 258 254 249 248 248 250 252 253 254 254 251 248 247 248 249 250 250 251 255 260 263 262 258 252 248 244 241 237 234 233 234 235 237 240 243 246 249 252 254 255 256 256 258 260 263 266
265 266 265 265 264 264 264 265 266 266 266 266 265 264 263 262 261 260 259 258 258 258 258 257 257 257 256 255 256 256 256 253 246 240 238 241 246 251 255 256 254 251 248 247 247 247 248 250 251 251 251 249 248 249 250 250 250 253 258 262 264 263 260 257 254 251 248 245 242 240 240 240 242 244 246 248 249 249 250 251 251 253 254 257 261 263
263 263 264 264 264 264 263 263 264 264 264 264 264 263 261 260 260 261 261 260 259 258 257 257 257 256 256 255 254 254 254 253 248 242 239 241 245 249 251 250 247 246 246 246 245 244 245 247 248 249 250 249 249 249 250 250 251 254 259 263 264 263 261 258 255 252 249 247 246 245 244 244 246 247 248 248 247 247 247 248 249 251 253 255 258 261
261 262 262 263 264 264 263 263 262 262 262 262 261 261 260 259 259 260 261 262 262 261 261 259 258 257 256 255 254 253 253 250 247 244 242 243 245 247 246 243 242 243 244 244 243 242 243 245 247 248 249 249 249 249 250 250 252 254 258 261 262 262 261 258 253 249 245 244 244 244 245 247 248 250 250 249 247 247 247 248 250 251 253 255 257 259
260 260 261 261 262 263 262 262 261 260 259 258 258 258 258 258 259 260 262 262 263 264 264 264 262 260 258 256 255 254 252 249 245 243 243 244 245 244 241 238 238 239 241 241 240 240 242 243 245 246 247 247 248 248 249 249 250 253 256 258 260 261 260 256 251 245 240 237 238 239 242 244 246 248 249 248 248 248 248 250 251 252 253 254 256 258
262 261 261 261 261 261 261 260 260 259 258 257 256 256 257 259 260 262 263 263 263 263 264 265 265 263 261 258 255 253 251 248 244 242 241 242 242 240 237 236 236 236 237 237 237 238 239 240 242 243 244 245 246 246 247 247 248 250 252 255 257 259 259 255 249 242 236 233 232 234 236 239 242 244 246 246 246 247 248 249 251 252 253 254 255 257
262 262 261 260 260 260 259 259 259 258 258 258 258 258 259 260 261 262 262 262 262 263 263 264 265 265 263 260 256 253 249 246 243 241 240 240 239 237 234 235 235 234 234 234 235 236 237 239 240 241 242 243 244 245 245 245 246 248 250 253 256 258 257 254 248 242 236 233 231 231 233 236 239 241 243 244 244 245 247 248 250 251 253 254 256 257
262 261 260 259 259 259 259 258 258 259 260 260 261 261 261 261 261 261 261 261 261 262 262 263 263 264 263 261 258 253 248 244 241 239 237 237 236 234 232 234 234 233 232 232 234 235 237 238 240 241 243 244 244 244 244 244 244 246 248 251 255 256 256 252 247 242 238 235 234 234 235 236 238 240 242 242 243 244 246 248 249 251 253 254 255 256
261 260 260 259 259 259 259 259 259 260 261 262 263 263 262 262 262 262 261 261 261 261 261 261 260 261 262 261 258 253 248 242 238 236 233 233 234 233 231 232 232 232 231 231 233 234 236 238 240 241 243 244 244 244 243 242 243 245 248 251 253 254 253 249 246 242 239 237 236 236 237 238 239 240 241 242 242 244 245 247 249 251 252 253 254 255
260 260 260 260 259 259 260 260 260 261 262 263 263 264 264 264 264 263 262 261 261 260 260 259 258 257 258 260 259 255 249 242 236 233 230 230 231 232 231 231 231 232 231 232 233 235 236 238 240 242 243 244 243 242 242 242 243 245 248 250 252 251 249 247 244 241 239 238 237 237 238 239 239 240 240 241 242 243 245 246 248 250 251 252 253 254
260 260 260 260 260 260 261 260 261 261 262 262 263 264 265 265 265 265 263 261 260 259 258 258 258 258 258 259 260 259 253 245 237 231 229 230 230 230 230 230 230 231 232 233 234 235 237 239 241 242 243 243 242 241 241 242 243 246 248 249 250 249 247 244 242 241 239 238 237 238 238 239 240 240 241 242 243 244 245 246 247 249 250 251 253 253
262 261 260 260 260 260 260 261 262 262 262 263 264 264 263 264 264 263 262 261 261 260 259 258 258 259 259 260 261 261 258 249 238 231 229 230 229 229 229 229 229 229 230 232 234 235 237 238 239 240 241 240 240 240 241 242 243 245 247 248 248 246 244 242 241 240 239 238 237 238 238 239 239 240 241 242 243 244 245 246 248 249 251 252 253 254
263 262 261 261 260 259 260 262 263 263 264 264 264 263 262 262 261 261 261 261 260 260 259 258 258 260 262 262 262 261 260 251 240 232 229 229 229 228 228 228 228 228 229 231 233 234 236 237 238 239 239 239 239 240 241 242 243 244 246 246 246 244 242 241 240 239 238 237 237 237 237 238 239 240 241 242 244 245 246 248 249 251 252 253 253 253
261 263 263 262 261 261 261 263 264 265 266 265 263 261 260 260 259 260 261 261 260 259 259 259 262 265 267 266 264 263 260 252 242 233 229 229 229 228 226 227 227 227 228 230 231 233 234 236 237 238 238 238 239 240 240 241 242 243 244 245 244 242 240 239 238 238 238 237 237 237 238 239 240 241 242 243 245 246 248 250 251 252 253 253 252 251
258 261 263 263 263 262 263 264 265 266 266 265 264 263 262 262 262 263 264 264 265 265 267 269 271 273 272 270 267 262 257 250 242 234 230 229 228 227 225 225 225 226 228 229 230 231 233 234 235 237 238 239 239 240 240 240 241 242 242 242 242 240 239 238 238 238 237 237 237 238 239 240 241 243 244 245 246 248 250 251 252 252 251 250 249 247
257 258 261 263 264 264 264 264 265 265 265 265 265 265 265 265 266 267 268 269 270 270 271 271 271 269 267 264 261 257 252 246 239 234 231 231 229 228 226 224 223 224 226 229 230 231 232 233 234 236 237 238 239 239 238 238 238 239 240 240 240 239 238 237 237 237 238 238 238 239 240 242 243 244 245 246 248 249 250 251 250 249 248 246 244 241
261 258 258 260 262 264 264 264 264 264 264 264 264 264 264 265 266 267 268 268 267 266 265 264 262 259 258 257 255 252 247 241 236 232 232 231 231 229 227 225 223 223 225 227 229 230 231 232 234 235 236 237 237 237 236 235 236 237 237 238 238 238 237 237 237 237 237 238 239 240 241 243 244 245 246 247 248 248 249 248 247 246 243 241 238 234
265 260 258 258 260 262 263 263 264 264 264 263 263 263 262 263 263 263 262 261 260 258 257 255 254 253 253 252 250 248 244 240 235 231 231 231 231 230 228 226 224 223 224 226 228 228 229 231 232 233 234 235 235 234 233 232 233 234 235 235 236 236 236 236 236 236 237 238 240 241 242 243 244 245 246 246 247 247 246 245 243 241 238 235 232 228
267 263 262 260 260 260 261 262 263 264 264 263 262 262 261 261 259 256 254 253 254 253 250 248 248 248 249 248 247 245 242 238 235 232 230 231 231 231 229 227 225 224 224 225 226 227 227 229 231 232 233 233 233 232 230 230 230 231 232 233 234 234 235 235 235 236 237 238 240 241 242 243 243 244 245 245 245 244 243 240 238 236 233 230 227 223
267 264 264 264 261 259 259 260 262 264 264 263 262 261 260 258 254 251 250 251 252 250 247 245 244 244 244 244 244 243 241 238 235 232 230 231 232 232 231 229 226 224 223 223 224 225 226 226 228 230 230 231 230 229 228 227 228 229 230 231 232 233 233 234 234 235 237 238 239 240 241 241 242 243 243 243 242 241 238 236 234 231 229 226 223 220
267 264 264 265 263 260 258 259 261 262 262 262 261 260 258 255 252 250 251 253 252 249 246 244 243 242 242 243 243 243 242 239 236 232 229 230 231 231 231 230 228 225 223 222 221 222 222 224 225 226 227 227 228 227 226 226 226 226 228 229 230 231 232 233 234 235 236 238 239 240 240 240 240 241 241 241 240 237 234 232 230 228 226 223 220 218
267 265 264 265 264 261 258 257 258 259 259 258 257 255 254 252 251 252 253 254 252 248 245 243 242 241 240 240 240 240 240 239 236 232 228 227 228 229 230 229 228 227 224 221 218 217 218 221 223 223 224 224 225 225 225 225 225 226 227 228 229 230 231 232 233 234 236 237 238 239 239 238 238 239 239 239 237 234 231 229 228 225 223 219 216 214
267 266 266 266 265 262 257 255 254 255 255 254 252 250 249 248 249 251 253 253 251 249 246 243 241 240 239 237 234 234 237 240 238 232 227 226 226 228 229 228 228 227 226 223 217 213 213 217 219 221 221 222 223 224 225 225 226 227 227 227 228 229 230 231 232 234 235 236 237 237 237 236 236 237 237 237 235 232 229 227 225 222 219 216 212 210
267 267 268 268 266 262 257 253 251 251 251 251 250 248 247 247 248 250 251 251 250 248 246 243 242 241 240 239 237 236 239 243 242 236 229 226 226 227 229 228 227 228 228 227 223 217 214 215 216 217 219 219 221 223 225 226 227 227 228 227 228 229 230 231 232 233 234 235 236 236 235 235 235 235 235 234 232 229 227 225 222 219 216 212 209 207
267 266 266 267 265 262 257 252 250 249 250 250 250 250 249 249 250 250 250 248 247 245 244 243 242 241 241 241 242 243 245 248 248 244 236 228 226 226 228 228 227 227 227 227 226 224 222 220 219 218 217 218 221 223 225 226 227 227 227 227 227 228 230 230 231 232 234 234 234 234 233 233 233 233 233 231 228 226 225 223 219 216 213 210 207 205
268 266 264 263 262 259 255 251 249 248 250 252 253 253 253 252 251 249 246 244 242 242 241 241 241 241 240 241 242 243 245 248 249 248 242 233 228 227 227 227 227 226 226 225 224 224 224 225 223 220 217 218 220 222 224 225 227 227 227 227 227 227 229 230 231 232 233 234 233 233 232 231 231 231 230 227 225 223 222 220 216 212 210 208 205 203
266 266 264 262 259 257 254 250 248 248 249 252 254 256 256 255 253 248 243 239 238 238 240 241 242 242 242 242 241 242 243 246 248 248 243 237 232 229 228 228 227 227 225 224 223 223 223 224 225 223 219 218 219 221 223 225 226 226 226 226 226 226 228 230 231 232 233 233 232 232 231 230 230 230 228 225 222 220 219 216 213 209 208 205 203 201
263 263 262 260 257 254 251 249 247 247 248 250 253 257 259 258 255 249 242 237 236 236 239 241 243 244 245 246 246 246 247 249 251 249 245 239 235 232 230 229 229 228 226 225 224 223 222 223 224 225 222 219 217 219 222 224 224 224 224 224 224 225 227 228 230 231 232 232 232 231 230 229 229 229 227 223 220 217 216 213 210 206 205 204 201 199
260 259 258 257 255 252 249 247 246 246 246 247 249 253 256 257 255 251 244 239 236 236 238 240 243 245 246 248 249 250 251 253 254 252 246 241 237 235 234 233 232 230 228 226 225 224 223 221 221 222 222 220 219 219 220 222 222 222 222 223 223 224 225 227 228 229 230 231 231 230 229 228 227 227 226 222 217 215 212 209 206 204 203 202 200 197
257 255 253 253 252 250 248 246 245 245 244 244 245 248 250 252 252 251 247 243 239 238 238 239 241 243 245 246 247 249 251 253 254 251 246 241 238 237 237 236 235 233 232 230 228 226 224 221 218 217 218 220 222 222 222 222 221 221 221 222 223 223 224 225 227 228 229 229 228 227 226 226 226 225 223 219 215 212 209 206 203 202 201 200 197 195
255 252 250 250 249 248 246 245 245 246 245 244 244 245 248 249 250 250 249 246 242 240 239 240 241 242 243 244 244 245 247 250 250 247 242 239 238 239 240 240 238 236 234 233 231 230 227 224 222 219 218 218 219 221 223 223 223 222 221 221 221 221 223 224 226 227 227 227 225 224 223 223 223 222 220 217 213 210 208 205 202 201 200 198 196 193
255 250 249 248 249 248 247 246 247 247 247 247 247 248 249 250 250 250 249 246 243 241 240 240 241 241 242 242 242 243 245 247 246 242 239 238 239 241 243 244 242 239 236 233 231 230 230 228 226 226 224 221 219 219 220 221 222 222 221 218 217 218 221 223 224 226 226 226 223 221 220 221 221 220 218 215 211 209 207 204 202 201 200 197 195 193
257 252 250 249 249 249 248 248 248 249 249 249 250 250 250 250 250 249 248 244 242 240 239 239 239 240 240 240 240 241 243 244 242 239 237 239 241 242 244 246 245 242 238 234 231 230 230 228 227 226 226 225 224 223 222 221 222 222 221 218 218 219 221 222 223 224 225 224 222 220 218 218 219 218 215 212 209 207 206 204 202 201 200 198 195 193
261 256 253 251 250 249 249 248 248 249 249 249 249 249 249 249 249 248 246 243 240 237 236 237 237 237 237 237 238 239 240 240 239 238 239 241 242 243 244 245 245 242 238 234 232 230 229 228 227 226 225 225 224 223 222 223 223 222 221 221 221 220 220 220 222 224 223 223 220 217 216 216 216 215 212 209 207 205 203 202 201 201 200 198 195 193
264 260 257 254 252 250 248 247 246 246 247 247 247 248 248 249 249 248 246 242 239 237 235 235 235 236 236 236 236 237 238 238 237 238 240 242 243 243 243 243 241 238 235 232 230 230 229 228 227 227 227 228 226 225 224 223 222 221 220 221 220 217 214 216 219 222 222 221 218 216 214 214 213 212 210 207 204 202 201 200 200 199 198 196 194 192
264 261 257 253 251 249 247 245 244 245 245 246 246 246 246 247 248 248 246 243 240 237 236 235 236 236 235 235 235 236 236 236 236 237 239 241 242 241 240 239 236 233 229 228 228 228 227 225 225 225 226 227 227 227 227 225 224 222 220 220 220 219 218 218 219 220 220 219 216 213 212 211 211 209 207 204 202 200 199 199 200 199 197 195 193 192
263 258 250 246 244 244 243 243 244 244 245 245 244 244 244 245 246 246 245 242 240 238 236 235 235 233 233 233 233 233 233 233 234 235 236 237 237 236 235 232 229 226 224 223 224 226 225 224 223 223 224 225 226 227 227 227 226 224 222 221 220 221 223 223 223 221 219 217 214 211 209 209 208 206 204 202 200 199 199 199 199 198 196 194 192 192
260 254 245 240 238 239 240 242 243 243 243 242 241 241 241 242 244 244 243 241 239 237 236 235 233 231 229 230 230 230 230 230 230 230 231 230 229 228 226 224 221 219 218 219 221 224 226 227 225 223 222 221 223 225 227 228 227 225 223 221 220 219 220 220 221 221 221 218 214 210 207 206 205 204 203 200 198 198 198 198 199 198 196 194 193 193
259 251 243 237 235 235 237 239 240 239 238 237 237 238 239 240 241 242 241 240 238 236 235 234 232 230 229 229 228 228 227 226 226 226 225 224 222 220 217 215 213 212 213 215 219 223 226 227 227 225 224 221 220 221 224 226 226 225 224 221 220 218 217 216 217 218 219 218 215 210 206 204 203 203 202 199 197 197 197 198 198 197 196 194 194 194
257 249 241 236 233 232 233 234 234 234 233 233 234 235 237 238 239 240 239 238 236 234 232 231 229 228 227 227 227 227 226 225 224 222 221 219 217 214 210 207 205 205 207 210 215 219 222 224 226 227 226 224 222 221 221 222 223 223 223 221 219 218 216 214 213 214 214 215 213 209 206 204 203 202 200 198 196 196 197 198 198 197 195 194 194 195
253 246 240 235 231 229 228 229 230 230 229 230 231 232 235 237 238 237 236 235 233 231 229 227 225 224 223 224 225 225 224 223 222 220 219 217 214 210 206 203 200 199 202 205 210 215 218 220 222 223 225 225 225 224 222 220 219 219 219 218 217 216 213 211 210 210 210 210 209 207 206 205 205 203 201 198 196 195 196 197 197 196 195 195 195 195
249 243 238 233 229 226 226 227 227 227 227 228 229 231 233 234 234 233 232 231 229 228 226 225 224 222 221 222 222 222 221 220 218 217 216 215 213 209 205 202 200 198 199 202 207 211 215 215 216 218 220 221 222 223 222 220 217 213 212 212 212 211 209 208 207 206 206 206 205 203 203 204 205 204 202 199 197 196 196 196 196 196 195 195 195 196
244 238 234 230 227 225 225 226 226 226 226 227 229 230 231 230 229 227 226 225 224 224 224 223 222 222 221 222 222 222 220 219 217 215 214 213 212 209 206 203 201 199 198 200 202 206 208 208 209 210 212 214 216 217 218 217 213 208 205 204 203 204 204 204 204 204 203 202 201 200 200 202 202 202 201 200 198 197 196 196 196 195 195 195 195 196